Hourly Weather Roundup
Issued by NWS Central Illinois

Home | Current Version | Previous Version | Text Only | Print | Product List | Glossary On
Versions: 1 2 3 4 5 6 7 8 9 10 11 12 13 14 15 16 17 18 19 20 21 22 23 24 25 26 27 28 29 30 31 32 33 34 35 36 37 38 39 40 41 42 43 44 45 46 47 48 49 50
000
NZUS43 KILX 150010
HWRILX

Area Weather Roundup
National Weather Service Lincoln IL
600 PM CST THU DEC 14 2017

NOTE:  "FAIR" indicates few or no clouds below 12,000 feet, with
       no sigificant weather and/or obstructions to visibility.


CITY           SKY/WX    TMP DP  RH WIND       PRES   REMARKS
Bloomington    CLOUDY    25  14  63 N5        30.08R WCI  19
6HR MIN TEMP:  25; 6HR MAX TEMP:  31;

Champaign      PTCLDY    27  16  63 W3        30.08R
6HR MIN TEMP:  27; 6HR MAX TEMP:  32;

Danville       CLOUDY    28  17  63 CALM      30.05S
6HR MIN TEMP:  28; 6HR MAX TEMP:  31;

Decatur        CLOUDY    26  15  63 NW5       30.09R WCI  20
6HR MIN TEMP:  26; 6HR MAX TEMP:  32;

Effingham      CLOUDY    31  22  71 W3        30.10S
6HR MIN TEMP:  31; 6HR MAX TEMP:  33;

Flora          CLOUDY    32  23  68 CALM      30.10S
6HR MIN TEMP:  32; 6HR MAX TEMP:  34;

Galesburg      CLOUDY    28  19  71 W6        30.10R WCI  21
6HR MIN TEMP:  26; 6HR MAX TEMP:  29;

Jacksonville   CLOUDY    28  16  59 W5        30.11R WCI  23
6HR MIN TEMP:  27; 6HR MAX TEMP:  29;

Lacon          CLOUDY    21  12  68 CALM      30.10R
6HR MIN TEMP:  21; 6HR MAX TEMP:  27;

Lawrenceville  CLOUDY    32  21  64 CALM      30.10S
6HR MIN TEMP:  32; 6HR MAX TEMP:  35;

Litchfield     CLOUDY    28  18  65 NW6       30.10R WCI  22
6HR MIN TEMP:  28; 6HR MAX TEMP:  32;

$$


CITY           SKY/WX    TMP DP  RH WIND       PRES   REMARKS
Lincoln        CLOUDY    28  17  63 W3        30.10S
6HR MIN TEMP:  28; 6HR MAX TEMP:  32;

Macomb         CLOUDY    29  18  63 W8        30.11R WCI  21
6HR MIN TEMP:  28; 6HR MAX TEMP:  31;

Mattoon        MOCLDY    28  18  66 N3        30.07S
6HR MIN TEMP:  27; 6HR MAX TEMP:  32;

Mt Carmel AP   CLOUDY    32  22  67 CALM      30.09S
6HR MIN TEMP:  32; 6HR MAX TEMP:  34;

Olney-Noble AP CLOUDY    31  22  69 CALM      30.10S
Paris AP       CLOUDY    28  20  70 CALM      30.09S
6HR MIN TEMP:  28; 6HR MAX TEMP:  32;

Peoria         PTCLDY    26  13  57 CALM      30.10R
6HR MIN TEMP:  26; 6HR MAX TEMP:  31;

Pontiac        CLOUDY    24  12  60 N5        30.10R WCI  18
6HR MIN TEMP:  24; 6HR MAX TEMP:  29;

Rantoul        CLOUDY    29  18  65 W3        30.08R
6HR MIN TEMP:  29; 6HR MAX TEMP:  33;

Robinson       CLOUDY    29  22  74 CALM      30.10S
6HR MIN TEMP:  29; 6HR MAX TEMP:  32;

Springfield    CLOUDY    28  16  60 W5        30.11R WCI  23
6HR MIN TEMP:  27; 6HR MAX TEMP:  33;

Taylorville    CLOUDY    28  17  63 W6        30.10R WCI  22
6HR MIN TEMP:  28; 6HR MAX TEMP:  32;

$$

...REGIONAL REPORTS...


CITY           SKY/WX    TMP DP  RH WIND       PRES   REMARKS
Chicago O`Hare PTCLDY    22  10  60 W5        30.07R WCI  16
Kankakee       CLOUDY    24  12  61 NW3       30.09S
Moline         CLOUDY    27  17  66 SW7       30.09R WCI  19
Mount Sterling CLOUDY    28  17  64 W6        30.09S WCI  21
Mount Vernon   CLOUDY    32  20  61 W3        30.10R
Pittsfield     CLOUDY    29  18  63 NW3       30.12R
Quincy         CLOUDY    28  17  63 W6        30.10R WCI  22
Rockford       CLEAR     20  10  65 W5        30.09R WCI  13
$$


CITY           SKY/WX    TMP DP  RH WIND       PRES   REMARKS
Burlington     CLOUDY    28  17  63 W8        30.10R WCI  20
Cedar Rapids   CLOUDY    25  16  68 W6        30.07S WCI  18
Des Moines     CLOUDY    32  20  61 CALM      30.08S
Kirksville     CLOUDY    31  25  78 CALM      30.10R
Ottumwa        CLOUDY    28  17  63 NW6       30.09R WCI  22
St Louis       CLOUDY    31  20  63 NW5       30.12R WCI  26
$$


CITY           SKY/WX    TMP DP  RH WIND       PRES   REMARKS
Terre Haute    CLOUDY    29  16  58 CALM      30.08S
Evansville     CLOUDY    32  21  64 CALM      30.10S
Indianapolis   MOCLDY    27  10  49 S6        30.07S WCI  20
Lafayette      MOCLDY    27  15  61 NE3       30.08R
Madison        CLOUDY    23  12  62 CALM      30.03S
Milwaukee      PTCLDY    21  11  65 W3        30.06R
$$





USA.gov is the U.S. government's official web portal to all federal, state and local government web resources and services.